27-01-2022, 00:00:02,    253,    0.2,    4.2,   0.00,   0.00, 1022.8,   79.7, -999.0
27-01-2022, 00:00:12,    199,    0.1,    4.1,   0.00,   0.00, 1022.8,   79.8, -999.0
27-01-2022, 00:00:22,    189,    0.1,    4.2,   0.00,   0.00, 1022.8,   80.0, -999.0
27-01-2022, 00:00:32,    196,    0.0,    4.2,   0.00,   0.00, 1022.8,   79.9, -999.0
27-01-2022, 00:00:42,    298,    0.3,    4.2,   0.00,   0.00, 1022.9,   79.9, -999.0
27-01-2022, 00:00:52,    274,    2.5,    4.2,   0.00,   0.00, 1022.9,   80.0, -999.0
27-01-2022, 00:01:02,    278,    3.0,    4.3,   0.00,   0.00, 1022.9,   80.2, -999.0
27-01-2022, 00:01:12,    266,    2.0,    4.3,   0.00,   0.00, 1022.9,   80.2, -999.0
27-01-2022, 00:01:22,    255,    2.7,    4.3,   0.00,   0.00, 1022.9,   80.3, -999.0
27-01-2022, 00:01:32,    180,    0.5,    4.3,   0.00,   0.00, 1022.9,   80.1, -999.0
27-01-2022, 00:01:42,    179,    0.0,    4.2,   0.00,   0.00, 1022.8,   79.8, -999.0
27-01-2022, 00:01:52,    179,    0.0,    4.2,   0.00,   0.00, 1022.8,   79.8, -999.0
27-01-2022, 00:02:02,    268,    0.2,    4.1,   0.00,   0.00, 1022.9,   80.0, -999.0
27-01-2022, 00:02:12,    255,    1.1,    4.2,   0.00,   0.00, 1022.9,   80.2, -999.0
27-01-2022, 00:02:22,    244,    1.1,    4.3,   0.00,   0.00, 1023.0,   80.2, -999.0
27-01-2022, 00:02:31,    243,    0.2,    4.3,   0.00,   0.00, 1022.9,   80.0, -999.0
27-01-2022, 00:02:42,    243,    0.0,    4.1,   0.00,   0.00, 1022.8,   79.8, -999.0
27-01-2022, 00:02:52,    209,    0.2,    4.2,   0.00,   0.00, 1022.9,   79.8, -999.0
27-01-2022, 00:03:01,    195,    0.9,    4.2,   0.00,   0.00, 1023.0,   80.2, -999.0
27-01-2022, 00:03:11,    197,    0.4,    4.2,   0.00,   0.00, 1023.0,   80.0, -999.0
27-01-2022, 00:03:22,    197,    0.2,    4.2,   0.00,   0.00, 1022.9,   80.1, -999.0
27-01-2022, 00:03:31,    201,    0.0,    4.2,   0.00,   0.00, 1022.8,   79.8, -999.0
27-01-2022, 00:03:41,    210,    0.1,    4.1,   0.00,   0.00, 1022.9,   80.0, -999.0
27-01-2022, 00:03:51,    218,    0.1,    4.2,   0.00,   0.00, 1022.8,   79.9, -999.0
27-01-2022, 00:04:01,    251,    2.0,    4.2,   0.00,   0.00, 1022.9,   80.1, -999.0
27-01-2022, 00:04:11,    252,    1.1,    4.2,   0.00,   0.00, 1023.0,   80.2, -999.0
27-01-2022, 00:04:21,    252,    0.0,    4.3,   0.00,   0.00, 1022.9,   79.9, -999.0
27-01-2022, 00:04:31,    252,    0.0,    4.2,   0.00,   0.00, 1022.8,   79.8, -999.0
27-01-2022, 00:04:41,    208,    0.2,    4.2,   0.00,   0.00, 1022.9,   80.1, -999.0
27-01-2022, 00:04:51,    209,    0.0,    4.2,   0.00,   0.00, 1022.9,   79.9, -999.0
27-01-2022, 00:05:01,    209,    0.0,    4.1,   0.00,   0.00, 1022.8,   79.8, -999.0
27-01-2022, 00:05:11,    209,    0.0,    4.1,   0.00,   0.00, 1022.8,   79.8, -999.0
27-01-2022, 00:05:21,    209,    0.0,    4.1,   0.00,   0.00, 1022.8,   79.8, -999.0
27-01-2022, 00:05:31,    209,    0.0,    4.1,   0.00,   0.00, 1022.8,   79.8, -999.0
27-01-2022, 00:05:40,    209,    0.0,    4.1,   0.00,   0.00, 1022.8,   79.8, -999.0
27-01-2022, 00:05:51,    210,    0.0,    4.1,   0.00,   0.00, 1022.8,   79.8, -999.0
27-01-2022, 00:06:01,    175,    0.2,    4.1,   0.00,   0.00, 1022.9,   80.0, -999.0
27-01-2022, 00:06:10,    184,    0.3,    4.3,   0.00,   0.00, 1022.9,   80.2, -999.0
27-01-2022, 00:06:20,    185,    0.3,    4.2,   0.00,   0.00, 1022.9,   80.0, -999.0
27-01-2022, 00:06:31,    184,    0.0,    4.1,   0.00,   0.00, 1022.8,   79.9, -999.0
27-01-2022, 00:06:40,    242,    0.3,    4.2,   0.00,   0.00, 1022.9,   80.1, -999.0
27-01-2022, 00:06:50,    242,    0.0,    4.1,   0.00,   0.00, 1022.8,   79.9, -999.0
27-01-2022, 00:07:01,    218,    0.7,    4.2,   0.00,   0.00, 1022.9,   80.2, -999.0
27-01-2022, 00:07:10,    217,    0.0,    4.1,   0.00,   0.00, 1022.8,   79.8, -999.0
27-01-2022, 00:07:20,    219,    0.0,    4.1,   0.00,   0.00, 1022.8,   79.7, -999.0
27-01-2022, 00:07:30,    218,    0.0,    4.1,   0.00,   0.00, 1022.7,   79.8, -999.0
27-01-2022, 00:07:40,    220,    0.0,    4.1,   0.00,   0.00, 1022.7,   79.8, -999.0
27-01-2022, 00:07:50,    220,    0.0,    4.1,   0.00,   0.00, 1022.8,   79.9, -999.0
27-01-2022, 00:08:00,    219,    0.0,    4.1,   0.00,   0.00, 1022.8,   79.8, -999.0
27-01-2022, 00:08:10,    220,    0.0,    4.0,   0.00,   0.00, 1022.8,   79.8, -999.0
27-01-2022, 00:08:20,    178,    0.2,    4.1,   0.00,   0.00, 1022.8,   79.9, -999.0
27-01-2022, 00:08:30,    178,    0.0,    4.1,   0.00,   0.00, 1022.7,   79.8, -999.0
27-01-2022, 00:08:40,    178,    0.0,    4.1,   0.00,   0.00, 1022.7,   79.8, -999.0
27-01-2022, 00:08:50,    181,    0.0,    4.0,   0.00,   0.00, 1022.7,   79.9, -999.0
27-01-2022, 00:09:00,    188,    0.0,    4.0,   0.00,   0.00, 1022.7,   79.9, -999.0
27-01-2022, 00:09:10,    204,    0.1,    4.1,   0.00,   0.00, 1022.8,   80.0, -999.0
27-01-2022, 00:09:19,    204,    0.2,    4.1,   0.00,   0.00, 1022.7,   80.2, -999.0
27-01-2022, 00:09:30,    204,    0.0,    4.1,   0.00,   0.00, 1022.7,   79.8, -999.0
27-01-2022, 00:09:40,    257,    0.5,    4.1,   0.00,   0.00, 1022.8,   80.3, -999.0
27-01-2022, 00:09:49,    220,    0.9,    4.1,   0.00,   0.00, 1022.7,   80.3, -999.0
27-01-2022, 00:09:59,    197,    0.3,    4.1,   0.00,   0.00, 1022.7,   80.3, -999.0
27-01-2022, 00:10:10,    205,    0.3,    4.1,   0.00,   0.00, 1022.7,   80.1, -999.0
27-01-2022, 00:10:19,    195,    0.1,    4.0,   0.00,   0.00, 1022.6,   80.1, -999.0
27-01-2022, 00:10:29,    194,    0.1,    4.1,   0.00,   0.00, 1022.6,   80.0, -999.0
27-01-2022, 00:10:39,    196,    0.0,    3.9,   0.00,   0.00, 1022.6,   80.0, -999.0
27-01-2022, 00:10:49,    193,    1.9,    4.2,   0.00,   0.00, 1022.7,   80.4, -999.0
27-01-2022, 00:10:59,    213,    0.6,    4.1,   0.00,   0.00, 1022.7,   80.3, -999.0
27-01-2022, 00:11:09,    213,    0.0,    4.1,   0.00,   0.00, 1022.6,   80.0, -999.0
27-01-2022, 00:11:19,    209,    1.2,    4.1,   0.00,   0.00, 1022.7,   80.4, -999.0
27-01-2022, 00:11:29,    149,    2.5,    4.2,   0.00,   0.00, 1022.7,   80.4, -999.0
27-01-2022, 00:11:39,    220,    2.1,    4.2,   0.00,   0.00, 1022.7,   80.4, -999.0
27-01-2022, 00:11:49,    228,    1.4,    4.2,   0.00,   0.00, 1022.7,   80.5, -999.0
27-01-2022, 00:11:59,    224,    0.3,    4.2,   0.00,   0.00, 1022.6,   80.4, -999.0
27-01-2022, 00:12:09,    198,    0.0,    4.1,   0.00,   0.00, 1022.6,   80.3, -999.0
27-01-2022, 00:12:19,    198,    0.0,    4.1,   0.00,   0.00, 1022.5,   80.2, -999.0
27-01-2022, 00:12:28,    210,    0.1,    4.2,   0.00,   0.00, 1022.6,   80.2, -999.0
27-01-2022, 00:12:39,    210,    0.0,    4.1,   0.00,   0.00, 1022.5,   80.1, -999.0
27-01-2022, 00:12:49,    217,    0.0,    4.1,   0.00,   0.00, 1022.5,   80.0, -999.0
27-01-2022, 00:12:58,    219,    0.1,    4.1,   0.00,   0.00, 1022.5,   80.2, -999.0
27-01-2022, 00:13:09,    217,    0.0,    4.0,   0.00,   0.00, 1022.5,   80.0, -999.0
27-01-2022, 00:13:19,    220,    0.2,    4.1,   0.00,   0.00, 1022.5,   80.2, -999.0
27-01-2022, 00:13:28,    232,    2.2,    4.2,   0.00,   0.00, 1022.6,   80.3, -999.0
27-01-2022, 00:13:38,    232,    0.1,    4.2,   0.00,   0.00, 1022.5,   80.2, -999.0
27-01-2022, 00:13:49,    232,    0.0,    4.1,   0.00,   0.00, 1022.5,   80.0, -999.0
27-01-2022, 00:13:58,    192,    0.7,    4.2,   0.00,   0.00, 1022.6,   80.3, -999.0
27-01-2022, 00:14:08,    192,    0.1,    4.2,   0.00,   0.00, 1022.5,   80.2, -999.0
27-01-2022, 00:14:18,    218,    0.4,    4.2,   0.00,   0.00, 1022.6,   80.3, -999.0
27-01-2022, 00:14:28,    248,    0.5,    4.2,   0.00,   0.00, 1022.7,   80.3, -999.0
27-01-2022, 00:14:38,    269,    1.1,    4.2,   0.00,   0.00, 1022.6,   80.4, -999.0
27-01-2022, 00:14:48,    272,    0.2,    4.2,   0.00,   0.00, 1022.6,   80.2, -999.0
27-01-2022, 00:14:58,    268,    0.2,    4.1,   0.00,   0.00, 1022.5,   80.0, -999.0
27-01-2022, 00:15:08,    250,    1.1,    4.2,   0.00,   0.00, 1022.6,   80.3, -999.0
27-01-2022, 00:15:18,    214,    0.8,    4.2,   0.00,   0.00, 1022.6,   80.1, -999.0
27-01-2022, 00:15:28,    220,    1.7,    4.2,   0.00,   0.00, 1022.7,   80.4, -999.0
27-01-2022, 00:15:38,    220,    0.6,    4.3,   0.00,   0.00, 1022.7,   80.4, -999.0
27-01-2022, 00:15:48,    208,    0.9,    4.3,   0.00,   0.00, 1022.7,   80.3, -999.0
27-01-2022, 00:15:58,    206,    0.7,    4.3,   0.00,   0.00, 1022.7,   80.4, -999.0
27-01-2022, 00:16:07,    201,    1.0,    4.1,   0.00,   0.00, 1022.7,   80.4, -999.0
27-01-2022, 00:16:18,    247,    0.6,    4.3,   0.00,   0.00, 1022.6,   80.4, -999.0
27-01-2022, 00:16:28,    248,    2.7,    4.2,   0.00,   0.00, 1022.7,   80.3, -999.0
27-01-2022, 00:16:37,    251,    1.4,    4.2,   0.00,   0.00, 1022.7,   80.3, -999.0
27-01-2022, 00:16:47,    210,    0.5,    4.2,   0.00,   0.00, 1022.6,   80.2, -999.0
27-01-2022, 00:16:58,    209,    0.2,    4.1,   0.00,   0.00, 1022.6,   80.2, -999.0
27-01-2022, 00:17:07,    206,    0.5,    4.2,   0.00,   0.00, 1022.6,   80.4, -999.0
27-01-2022, 00:17:17,    205,    0.0,    4.3,   0.00,   0.00, 1022.5,   79.9, -999.0
27-01-2022, 00:17:27,    204,    0.0,    4.1,   0.00,   0.00, 1022.5,   79.8, -999.0
27-01-2022, 00:17:37,    203,    0.0,    4.1,   0.00,   0.00, 1022.5,   79.8, -999.0
27-01-2022, 00:17:47,    204,    0.0,    4.1,   0.00,   0.00, 1022.5,   79.9, -999.0
27-01-2022, 00:17:57,    203,    0.0,    4.1,   0.00,   0.00, 1022.5,   79.8, -999.0
27-01-2022, 00:18:07,    203,    0.0,    4.1,   0.00,   0.00, 1022.5,   79.9, -999.0
27-01-2022, 00:18:17,    203,    0.0,    4.1,   0.00,   0.00, 1022.5,   79.8, -999.0
27-01-2022, 00:18:27,    203,    0.0,    4.1,   0.00,   0.00, 1022.5,   79.7, -999.0
27-01-2022, 00:18:37,    203,    0.2,    4.1,   0.00,   0.00, 1022.6,   80.2, -999.0
27-01-2022, 00:18:47,    203,    0.0,    4.1,   0.00,   0.00, 1022.5,   80.0, -999.0
27-01-2022, 00:18:57,    205,    0.0,    4.1,   0.00,   0.00, 1022.6,   80.0, -999.0
27-01-2022, 00:19:07,    207,    0.0,    4.1,   0.00,   0.00, 1022.5,   79.9, -999.0
27-01-2022, 00:19:16,    206,    0.0,    4.1,   0.00,   0.00, 1022.5,   79.9, -999.0
27-01-2022, 00:19:27,    245,    0.3,    4.1,   0.00,   0.00, 1022.6,   80.2, -999.0
27-01-2022, 00:19:37,    230,    1.3,    4.2,   0.00,   0.00, 1022.7,   80.3, -999.0
27-01-2022, 00:19:46,    212,    0.0,    4.1,   0.00,   0.00, 1022.5,   79.8, -999.0
27-01-2022, 00:19:56,    214,    0.0,    4.1,   0.00,   0.00, 1022.5,   79.9, -999.0
27-01-2022, 00:20:07,    253,    0.5,    4.2,   0.00,   0.00, 1022.6,   80.2, -999.0
27-01-2022, 00:20:16,    273,    0.3,    4.2,   0.00,   0.00, 1022.6,   80.2, -999.0
27-01-2022, 00:20:26,    237,    0.8,    4.2,   0.00,   0.00, 1022.6,   80.3, -999.0
27-01-2022, 00:20:37,    213,    1.0,    4.2,   0.00,   0.00, 1022.6,   80.2, -999.0
27-01-2022, 00:20:46,    203,    0.9,    4.1,   0.00,   0.00, 1022.6,   80.3, -999.0
27-01-2022, 00:20:56,    203,    0.1,    4.1,   0.00,   0.00, 1022.5,   80.0, -999.0
27-01-2022, 00:21:06,    204,    0.0,    4.1,   0.00,   0.00, 1022.5,   80.0, -999.0
27-01-2022, 00:21:16,    203,    0.0,    4.0,   0.00,   0.00, 1022.5,   79.9, -999.0
27-01-2022, 00:21:27,    226,    0.0,    4.0,   0.00,   0.00, 1022.5,   80.1, -999.0
27-01-2022, 00:21:36,    170,    0.8,    4.1,   0.00,   0.00, 1022.6,   80.3, -999.0
27-01-2022, 00:21:46,    170,    0.0,    4.0,   0.00,   0.00, 1022.5,   79.9, -999.0
27-01-2022, 00:21:56,    199,    0.3,    4.1,   0.00,   0.00, 1022.5,   80.1, -999.0
27-01-2022, 00:22:06,    198,    0.2,    4.1,   0.00,   0.00, 1022.5,   80.0, -999.0
27-01-2022, 00:22:16,    199,    0.0,    4.0,   0.00,   0.00, 1022.5,   79.9, -999.0
27-01-2022, 00:22:26,    231,    0.1,    4.1,   0.00,   0.00, 1022.6,   80.2, -999.0
27-01-2022, 00:22:36,    223,    0.5,    4.1,   0.00,   0.00, 1022.6,   80.3, -999.0
27-01-2022, 00:22:46,    239,    1.7,    4.1,   0.00,   0.00, 1022.6,   80.3, -999.0
27-01-2022, 00:22:56,    235,    0.5,    4.1,   0.00,   0.00, 1022.6,   80.2, -999.0
27-01-2022, 00:23:05,    235,    0.3,    4.1,   0.00,   0.00, 1022.6,   80.2, -999.0
27-01-2022, 00:23:16,    234,    0.0,    4.0,   0.00,   0.00, 1022.5,   80.0, -999.0
27-01-2022, 00:23:26,    185,    0.3,    4.1,   0.00,   0.00, 1022.6,   80.2, -999.0
27-01-2022, 00:23:35,    185,    0.0,    3.8,   0.00,   0.00, 1022.4,   79.9, -999.0
27-01-2022, 00:23:45,    191,    0.3,    4.1,   0.00,   0.00, 1022.6,   80.2, -999.0
27-01-2022, 00:23:56,    192,    0.0,    4.1,   0.00,   0.00, 1022.4,   80.0, -999.0
27-01-2022, 00:24:05,    216,    1.7,    4.1,   0.00,   0.00, 1022.6,   80.3, -999.0
27-01-2022, 00:24:15,    224,    1.9,    4.1,   0.00,   0.00, 1022.7,   80.4, -999.0
27-01-2022, 00:24:25,    244,    1.2,    4.1,   0.00,   0.00, 1022.6,   80.4, -999.0
27-01-2022, 00:24:35,    245,    0.8,    4.1,   0.00,   0.00, 1022.6,   80.5, -999.0
27-01-2022, 00:24:45,    243,    0.4,    4.1,   0.00,   0.00, 1022.6,   80.4, -999.0
27-01-2022, 00:24:55,    233,    0.2,    4.0,   0.00,   0.00, 1022.5,   80.3, -999.0
27-01-2022, 00:25:05,    232,    0.2,    4.0,   0.00,   0.00, 1022.6,   80.4, -999.0
27-01-2022, 00:25:15,    231,    0.0,    4.0,   0.00,   0.00, 1022.5,   80.1, -999.0
27-01-2022, 00:25:25,    232,    0.0,    4.1,   0.00,   0.00, 1022.5,   80.1, -999.0
27-01-2022, 00:25:35,    189,    0.5,    4.1,   0.00,   0.00, 1022.6,   80.5, -999.0
27-01-2022, 00:25:45,    215,    1.7,    4.1,   0.00,   0.00, 1022.6,   80.6, -999.0
27-01-2022, 00:25:55,    246,    3.2,    4.2,   0.00,   0.00, 1022.6,   80.6, -999.0
27-01-2022, 00:26:05,    215,    0.9,    4.2,   0.00,   0.00, 1022.6,   80.5, -999.0
27-01-2022, 00:26:15,    205,    0.7,    4.1,   0.00,   0.00, 1022.6,   80.6, -999.0
27-01-2022, 00:26:25,    190,    0.2,    4.1,   0.00,   0.00, 1022.5,   80.5, -999.0
27-01-2022, 00:26:35,    203,    1.3,    4.1,   0.00,   0.00, 1022.6,   80.6, -999.0
27-01-2022, 00:26:44,    216,    1.6,    4.2,   0.00,   0.00, 1022.6,   80.5, -999.0
27-01-2022, 00:26:54,    211,    0.6,    4.1,   0.00,   0.00, 1022.5,   80.4, -999.0
27-01-2022, 00:27:05,    211,    0.1,    4.1,   0.00,   0.00, 1022.5,   80.1, -999.0
27-01-2022, 00:27:14,    213,    0.1,    4.1,   0.00,   0.00, 1022.5,   80.4, -999.0
27-01-2022, 00:27:24,    213,    0.0,    4.0,   0.00,   0.00, 1022.5,   80.4, -999.0
27-01-2022, 00:27:34,    207,    0.0,    4.1,   0.00,   0.00, 1022.5,   80.3, -999.0
27-01-2022, 00:27:44,    224,    2.3,    4.2,   0.00,   0.00, 1022.6,   80.4, -999.0
27-01-2022, 00:27:54,    229,    1.4,    4.2,   0.00,   0.00, 1022.6,   80.5, -999.0
27-01-2022, 00:28:04,    210,    2.1,    4.1,   0.00,   0.00, 1022.6,   80.5, -999.0
27-01-2022, 00:28:14,    220,    2.4,    4.2,   0.00,   0.00, 1022.6,   80.5, -999.0
27-01-2022, 00:28:24,    251,    3.4,    4.2,   0.00,   0.00, 1022.6,   80.6, -999.0
27-01-2022, 00:28:34,    243,    0.8,    4.2,   0.00,   0.00, 1022.6,   80.6, -999.0
27-01-2022, 00:28:44,    245,    1.1,    4.3,   0.00,   0.00, 1022.6,   80.7, -999.0
27-01-2022, 00:28:54,    254,    1.3,    4.2,   0.00,   0.00, 1022.6,   80.6, -999.0
27-01-2022, 00:29:04,    253,    0.3,    4.2,   0.00,   0.00, 1022.5,   80.3, -999.0
27-01-2022, 00:29:14,    253,    0.0,    4.1,   0.00,   0.00, 1022.4,   80.1, -999.0
27-01-2022, 00:29:24,    253,    0.0,    4.1,   0.00,   0.00, 1022.5,   80.2, -999.0
27-01-2022, 00:29:34,    253,    0.0,    4.1,   0.00,   0.00, 1022.5,   80.0, -999.0
27-01-2022, 00:29:44,    229,    0.6,    4.1,   0.00,   0.00, 1022.6,   80.3, -999.0
27-01-2022, 00:29:54,    229,    0.3,    4.2,   0.00,   0.00, 1022.6,   80.3, -999.0
27-01-2022, 00:30:03,    217,    0.2,    4.2,   0.00,   0.00, 1022.6,   80.3, -999.0
27-01-2022, 00:30:14,    217,    0.0,    4.1,   0.00,   0.00, 1022.5,   80.1, -999.0
27-01-2022, 00:30:23,    216,    0.0,    4.1,   0.00,   0.00, 1022.4,   80.1, -999.0
27-01-2022, 00:30:33,    228,    0.2,    4.1,   0.00,   0.00, 1022.5,   80.3, -999.0
27-01-2022, 00:30:44,    233,    2.6,    4.1,   0.00,   0.00, 1022.6,   80.3, -999.0
27-01-2022, 00:30:53,    236,    2.5,    4.2,   0.00,   0.00, 1022.6,   80.5, -999.0
27-01-2022, 00:31:03,    222,    2.4,    4.2,   0.00,   0.00, 1022.6,   80.4, -999.0
27-01-2022, 00:31:13,    218,    0.6,    4.2,   0.00,   0.00, 1022.6,   80.5, -999.0
27-01-2022, 00:31:23,    220,    0.3,    4.0,   0.00,   0.00, 1022.5,   80.3, -999.0
27-01-2022, 00:31:33,    225,    1.4,    4.2,   0.00,   0.00, 1022.6,   80.5, -999.0
27-01-2022, 00:31:43,    227,    0.6,    4.2,   0.00,   0.00, 1022.6,   80.4, -999.0
27-01-2022, 00:31:53,    228,    0.1,    4.2,   0.00,   0.00, 1022.6,   80.2, -999.0
27-01-2022, 00:32:03,    228,    0.0,    4.0,   0.00,   0.00, 1022.5,   80.0, -999.0
27-01-2022, 00:32:13,    228,    0.0,    4.1,   0.00,   0.00, 1022.5,   79.9, -999.0
27-01-2022, 00:32:23,    228,    0.0,    4.1,   0.00,   0.00, 1022.5,   80.0, -999.0
27-01-2022, 00:32:33,    206,    0.0,    4.1,   0.00,   0.00, 1022.5,   80.0, -999.0
27-01-2022, 00:32:43,    193,    0.3,    4.1,   0.00,   0.00, 1022.6,   80.3, -999.0
27-01-2022, 00:32:53,    194,    0.0,    4.1,   0.00,   0.00, 1022.5,   80.1, -999.0
27-01-2022, 00:33:03,    195,    0.0,    4.1,   0.00,   0.00, 1022.5,   80.1, -999.0
27-01-2022, 00:33:13,    195,    0.0,    4.1,   0.00,   0.00, 1022.5,   79.9, -999.0
27-01-2022, 00:33:23,    211,    0.1,    4.2,   0.00,   0.00, 1022.5,   80.1, -999.0
27-01-2022, 00:33:32,    214,    0.8,    4.2,   0.00,   0.00, 1022.6,   80.3, -999.0
27-01-2022, 00:33:42,    214,    0.0,    4.1,   0.00,   0.00, 1022.5,   79.9, -999.0
27-01-2022, 00:33:53,    280,    0.3,    4.2,   0.00,   0.00, 1022.6,   80.2, -999.0
27-01-2022, 00:34:02,    280,    0.2,    4.1,   0.00,   0.00, 1022.5,   80.1, -999.0
27-01-2022, 00:34:12,    280,    0.0,    4.0,   0.00,   0.00, 1022.5,   80.0, -999.0
27-01-2022, 00:34:22,    280,    0.0,    4.1,   0.00,   0.00, 1022.5,   79.9, -999.0
27-01-2022, 00:34:32,    280,    0.0,    4.0,   0.00,   0.00, 1022.4,   79.9, -999.0
27-01-2022, 00:34:42,    280,    0.0,    4.1,   0.00,   0.00, 1022.4,   79.9, -999.0
27-01-2022, 00:34:52,    279,    0.0,    4.1,   0.00,   0.00, 1022.5,   79.9, -999.0
27-01-2022, 00:35:02,    274,    0.0,    4.1,   0.00,   0.00, 1022.5,   79.9, -999.0
27-01-2022, 00:35:12,    246,    0.1,    4.1,   0.00,   0.00, 1022.6,   80.1, -999.0
27-01-2022, 00:35:22,    210,    0.9,    4.1,   0.00,   0.00, 1022.6,   80.2, -999.0
27-01-2022, 00:35:32,    202,    5.2,    4.2,   0.00,   0.00, 1022.6,   80.5, -999.0
27-01-2022, 00:35:42,    254,    3.8,    4.2,   0.00,   0.00, 1022.6,   80.4, -999.0
27-01-2022, 00:35:52,    243,    0.7,    4.2,   0.00,   0.00, 1022.6,   80.4, -999.0
27-01-2022, 00:36:02,    244,    0.0,    4.1,   0.00,   0.00, 1022.5,   80.1, -999.0
27-01-2022, 00:36:12,    240,    0.3,    4.2,   0.00,   0.00, 1022.6,   80.1, -999.0
27-01-2022, 00:36:22,    231,    1.6,    4.2,   0.00,   0.00, 1022.6,   80.4, -999.0
27-01-2022, 00:36:32,    232,    1.1,    4.2,   0.00,   0.00, 1022.6,   80.3, -999.0
27-01-2022, 00:36:42,    233,    0.0,    4.2,   0.00,   0.00, 1022.5,   80.1, -999.0
27-01-2022, 00:36:52,    232,    0.0,    4.1,   0.00,   0.00, 1022.4,   79.9, -999.0
27-01-2022, 00:37:02,    195,    0.0,    4.1,   0.00,   0.00, 1022.4,   79.9, -999.0
27-01-2022, 00:37:11,    194,    0.4,    4.2,   0.00,   0.00, 1022.5,   80.2, -999.0
27-01-2022, 00:37:21,    204,    0.5,    4.1,   0.00,   0.00, 1022.5,   80.2, -999.0
27-01-2022, 00:37:32,    205,    0.1,    4.1,   0.00,   0.00, 1022.5,   80.1, -999.0
27-01-2022, 00:37:41,    257,    0.5,    4.2,   0.00,   0.00, 1022.6,   80.3, -999.0
27-01-2022, 00:37:51,    267,    0.6,    4.2,   0.00,   0.00, 1022.6,   80.3, -999.0
27-01-2022, 00:38:01,    217,    0.0,    4.1,   0.00,   0.00, 1022.5,   79.9, -999.0
27-01-2022, 00:38:11,    219,    0.0,    4.0,   0.00,   0.00, 1022.5,   80.0, -999.0
27-01-2022, 00:38:21,    219,    0.0,    4.0,   0.00,   0.00, 1022.5,   80.1, -999.0
27-01-2022, 00:38:31,    211,    0.0,    4.1,   0.00,   0.00, 1022.5,   79.9, -999.0
27-01-2022, 00:38:41,    212,    0.0,    4.1,   0.00,   0.00, 1022.4,   79.8, -999.0
27-01-2022, 00:38:51,    204,    0.0,    4.1,   0.00,   0.00, 1022.4,   80.0, -999.0
27-01-2022, 00:39:01,    197,    0.8,    4.1,   0.00,   0.00, 1022.6,   80.3, -999.0
27-01-2022, 00:39:11,    196,    0.1,    4.1,   0.00,   0.00, 1022.5,   80.2, -999.0
27-01-2022, 00:39:21,    197,    0.0,    4.2,   0.00,   0.00, 1022.4,   80.1, -999.0
27-01-2022, 00:39:31,    198,    0.0,    4.1,   0.00,   0.00, 1022.5,   80.1, -999.0
27-01-2022, 00:39:41,    200,    0.6,    4.2,   0.00,   0.00, 1022.5,   80.3, -999.0
27-01-2022, 00:39:51,    199,    0.1,    4.1,   0.00,   0.00, 1022.5,   80.1, -999.0
27-01-2022, 00:40:01,    199,    0.0,    4.0,   0.00,   0.00, 1022.4,   79.9, -999.0
27-01-2022, 00:40:11,    199,    0.0,    4.1,   0.00,   0.00, 1022.4,   80.0, -999.0
27-01-2022, 00:40:21,    201,    0.0,    4.1,   0.00,   0.00, 1022.4,   79.9, -999.0
27-01-2022, 00:40:30,    230,    0.5,    4.1,   0.00,   0.00, 1022.5,   80.2, -999.0
27-01-2022, 00:40:41,    227,    0.0,    4.1,   0.00,   0.00, 1022.4,   80.0, -999.0
27-01-2022, 00:40:50,    227,    0.0,    4.1,   0.00,   0.00, 1022.5,   80.0, -999.0
27-01-2022, 00:41:00,    226,    0.0,    4.1,   0.00,   0.00, 1022.5,   80.0, -999.0
27-01-2022, 00:41:10,    219,    0.0,    4.1,   0.00,   0.00, 1022.4,   80.0, -999.0
27-01-2022, 00:41:20,    219,    0.0,    4.1,   0.00,   0.00, 1022.5,   80.0, -999.0
27-01-2022, 00:41:30,    219,    0.0,    4.1,   0.00,   0.00, 1022.4,   79.8, -999.0
27-01-2022, 00:41:40,    220,    0.0,    4.1,   0.00,   0.00, 1022.5,   79.9, -999.0
27-01-2022, 00:41:50,    219,    0.0,    4.1,   0.00,   0.00, 1022.4,   79.9, -999.0
27-01-2022, 00:42:00,    218,    0.0,    4.1,   0.00,   0.00, 1022.5,   80.1, -999.0
27-01-2022, 00:42:10,    219,    0.0,    4.1,   0.00,   0.00, 1022.5,   79.9, -999.0
27-01-2022, 00:42:20,    223,    0.5,    4.0,   0.00,   0.00, 1022.6,   80.1, -999.0
27-01-2022, 00:42:30,    223,    0.0,    4.1,   0.00,   0.00, 1022.4,   79.9, -999.0
27-01-2022, 00:42:40,    214,    0.0,    4.1,   0.00,   0.00, 1022.5,   79.9, -999.0
27-01-2022, 00:42:50,    213,    0.0,    4.1,   0.00,   0.00, 1022.4,   79.9, -999.0
27-01-2022, 00:43:00,    213,    0.0,    4.1,   0.00,   0.00, 1022.4,   79.9, -999.0
27-01-2022, 00:43:10,    211,    0.1,    4.1,   0.00,   0.00, 1022.5,   80.0, -999.0
27-01-2022, 00:43:20,    212,    0.0,    4.1,   0.00,   0.00, 1022.4,   80.0, -999.0
27-01-2022, 00:43:30,    212,    0.0,    4.1,   0.00,   0.00, 1022.5,   79.9, -999.0
27-01-2022, 00:43:40,    212,    0.1,    4.2,   0.00,   0.00, 1022.5,   80.2, -999.0
27-01-2022, 00:43:50,    212,    0.2,    4.2,   0.00,   0.00, 1022.5,   80.3, -999.0
27-01-2022, 00:43:59,    212,    0.0,    4.2,   0.00,   0.00, 1022.5,   80.2, -999.0
27-01-2022, 00:44:09,    212,    0.0,    4.1,   0.00,   0.00, 1022.4,   80.0, -999.0
27-01-2022, 00:44:20,    248,    0.0,    4.1,   0.00,   0.00, 1022.4,   80.0, -999.0
27-01-2022, 00:44:29,    263,    0.4,    4.2,   0.00,   0.00, 1022.5,   80.2, -999.0
27-01-2022, 00:44:39,    249,    0.0,    4.0,   0.00,   0.00, 1022.4,   80.1, -999.0
27-01-2022, 00:44:49,    214,    0.2,    4.2,   0.00,   0.00, 1022.5,   80.2, -999.0
27-01-2022, 00:44:59,    215,    0.1,    4.2,   0.00,   0.00, 1022.4,   80.2, -999.0
27-01-2022, 00:45:09,    215,    0.0,    4.1,   0.00,   0.00, 1022.4,   80.0, -999.0
27-01-2022, 00:45:19,    204,    0.1,    4.1,   0.00,   0.00, 1022.4,   80.1, -999.0
27-01-2022, 00:45:29,    198,    0.5,    4.2,   0.00,   0.00, 1022.4,   80.3, -999.0
27-01-2022, 00:45:39,    196,    0.0,    4.1,   0.00,   0.00, 1022.4,   80.1, -999.0
27-01-2022, 00:45:49,    214,    1.2,    4.2,   0.00,   0.00, 1022.5,   80.3, -999.0
27-01-2022, 00:45:59,    230,    0.6,    4.2,   0.00,   0.00, 1022.5,   80.3, -999.0
27-01-2022, 00:46:09,    232,    0.0,    4.1,   0.00,   0.00, 1022.4,   80.2, -999.0
27-01-2022, 00:46:19,    230,    0.0,    4.1,   0.00,   0.00, 1022.4,   80.0, -999.0
27-01-2022, 00:46:29,    222,    0.1,    4.1,   0.00,   0.00, 1022.4,   80.3, -999.0
27-01-2022, 00:46:39,    221,    0.3,    4.2,   0.00,   0.00, 1022.4,   80.3, -999.0